Tracking 27188 objects as of 1-Apr-2023
HD Live streaming from Space Station
objects crossing your sky now

STARLINK-5435

Track STARLINK-5435 now!
10-day predictions
STARLINK-5435 is classified as:


NORAD ID: 54797
Int'l Code: 2022-175AR
Perigee: 546.5 km
Apogee: 547.3 km
Inclination: 53.2 °
Period: 95.4 minutes
Semi major axis: 6917 km
RCS: Unknown
Launch date: December 17, 2022
Source: United States (US)
Launch site: AIR FORCE EASTERN TEST RANGE (AFETR)
Your satellite tracking list
Your tracking list is empty




NASA's NSSDC Master Catalog

Two Line Element Set (TLE):
1 54797U 22175AR  23091.20366642 -.00003906  00000-0 -22750-3 0  9992
2 54797  53.2168 182.8589 0000634  79.5927 280.5137 15.08834551 15701
Source of the keplerian elements: AFSPC